Regional Weather Roundup
Issued by NWS

Home | Current Version | Previous Version | Text Only | Print | Product List | Glossary On
Versions: 1 2 3 4 5 6 7 8 9 10 11 12 13 14 15 16 17 18 19 20 21 22 23 24 25 26 27 28 29 30 31 32 33 34 35 36 37 38 39 40 41 42 43 44 45 46 47 48 49 50
000
ASUS43 KIND 271209
RWRIN

WEATHER ROUNDUP FOR INDIANA
NATIONAL WEATHER SERVICE INDIANAPOLIS IN
800 AM EDT MON APR 27 2015

NOTE: "FAIR" INDICATES FEW OR NO CLOUDS BELOW 12,000 FEET WITH NO
SIGNIFICANT WEATHER AND/OR OBSTRUCTIONS TO VISIBILITY.

* - STATION DOES NOT REPORT WEATHER SUCH AS PRECIPITATION OR FOG.

+ - STATION NOT QUALITY CONTROLLED BY THE NATIONAL WEATHER SERVICE.
    USE DATA WITH CAUTION...ESPECIALLY DEWPOINT AND RELATIVE
    HUMIDITY OBSERVATIONS.

INZ001>003-010>013-019-020-271300-
NORTHWEST INDIANA

CITY           SKY/WX    TMP DP  RH WIND       PRES   REMARKS
GARY /AIRPORT/ SUNNY     43  30  61 N17G29    30.07R
KNOX *+        SUNNY     37  28  70 N8        30.02R
LA PORTE +     SUNNY     41  36  80 NW9       30.03R
6HR MIN TEMP:  38; 6HR MAX TEMP:  41;

MICHIGAN CITY+ SUNNY     39  32  75 N9        30.05R
MONTICELLO +   SUNNY     37  35  91 NW7       30.03R
6HR MIN TEMP:  35; 6HR MAX TEMP:  38;

VALPARAISO     SUNNY     40  32  73 N9        30.05R
6HR MIN TEMP:  37; 6HR MAX TEMP:  40;


$$

LMZ046-743>745-271300-
SOUTHERN LAKE MICHIGAN

STATION/POSITION TIME  TEMP    WIND        PRES    WAVE
                       AIR SEA DIR/SP/G            HT
                 (UTC) (F)     (DEG/KT/KT) (MB)    (FT)
BURNS HARBOR     1200   41     360/ 15/ 22 1017.9R
MICHIGAN CITY    1200   40     350/ 21/ 24   N/A
5NW MICH CITY    1200   40 45   10/ 17/ 23   N/A     5

$$

INZ004-005-014>016-021>024-271300-
NORTH CENTRAL INDIANA

CITY           SKY/WX    TMP DP  RH WIND       PRES   REMARKS
ELKHART        SUNNY     39  30  70 N7        30.00R
GOSHEN         SUNNY     40  32  73 N8        29.98R
6HR MIN TEMP:  35; 6HR MAX TEMP:  40;

LOGANSPORT +   SUNNY     37  32  81 NW5       30.03R
PERU/GRISSOM   SUNNY     40  33  78 W6        30.00R
6HR MIN TEMP:  37; 6HR MAX TEMP:  40;

ROCHESTER +    SUNNY     41  36  81 N6        30.01R
SOUTH BEND     FAIR      40  33  76 N10       30.01R
6HR MIN TEMP:  36; 6HR MAX TEMP:  40;

WARSAW +       SUNNY     37  32  81 N5        29.98R

$$

INZ006>009-017-018-025>027-271300-
NORTHEAST INDIANA

CITY           SKY/WX    TMP DP  RH WIND       PRES   REMARKS
ANGOLA *+      SUNNY     39  32  75 N6        29.97R
AUBURN +       SUNNY     41  32  70 NW5       29.97S
FORT WAYNE     MOSUNNY   40  33  76 N6        29.97R
6HR MIN TEMP:  35; 6HR MAX TEMP:  45;

HUNTINGTON +   SUNNY     39  32  75 N5        29.97R
6HR MIN TEMP:  37; 6HR MAX TEMP:  43;


$$

INZ028-029-035-036-043>045-051>053-271300-
WEST CENTRAL INDIANA

CITY           SKY/WX    TMP DP  RH WIND       PRES   REMARKS
CRAWFORDSVL +  SUNNY     36  30  78 NW7       30.04R
6HR MIN TEMP:  32; 6HR MAX TEMP:  37;

GREENCASTLE +  SUNNY     37  30  75 NW9       30.04R
LAFAYETTE      SUNNY     36  33  89 NW7       30.05R
6HR MIN TEMP:  33; 6HR MAX TEMP:  37;

TERRE HAUTE    SUNNY     40  32  73 N9        30.04R
6HR MIN TEMP:  37; 6HR MAX TEMP:  43;


$$

INZ030>032-037>040-046>048-054>057-064-065-271300-
CENTRAL INDIANA

CITY           SKY/WX    TMP DP  RH WIND       PRES   REMARKS
CP ATTERBURY + SUNNY     37  32  81 NW6       30.01R
COLUMBUS       SUNNY     37  32  81 NW6       30.01R
FISHERS *+     SUNNY     37  36  93 NW6       30.01R
FRANKFORT +    SUNNY     37  35  90 W7        30.03R
6HR MIN TEMP:  35; 6HR MAX TEMP:  39;

GREENWOOD *+   SUNNY     39  30  70 NW10G17   30.02R
INDIANAPOLIS   SUNNY     39  32  76 NW8       30.00R
6HR MIN TEMP:  35; 6HR MAX TEMP:  41;

-EAGLE CREEK   SUNNY     38  32  79 NW8       30.01R
6HR MIN TEMP:  37; 6HR MAX TEMP:  43;

KOKOMO *+      SUNNY     39  30  70 W7        30.01R
6HR MIN TEMP:  36; 6HR MAX TEMP:  39;

MARION +       SUNNY     37  31  77 NW6       29.99R
MT COMFORT *+  SUNNY     37  28  70 W7        30.00R
SHELBYVILLE    SUNNY     41  32  70 NW8       30.00R
6HR MIN TEMP:  36; 6HR MAX TEMP:  44;

ZIONSVILLE +   SUNNY     38  32  79 NW9       30.02R
6HR MIN TEMP:  36; 6HR MAX TEMP:  40;


$$

INZ033-034-041-042-049-050-058-059-271300-
EAST CENTRAL INDIANA

CITY           SKY/WX    TMP DP  RH WIND       PRES   REMARKS
MUNCIE         SUNNY     38  32  79 W7        29.98R
6HR MIN TEMP:  35; 6HR MAX TEMP:  45;


$$

INZ060-061-067>069-081>083-085>088-271300-
SOUTHWEST INDIANA

CITY           SKY/WX    TMP DP  RH WIND       PRES   REMARKS
EVANSVILLE     MOSUNNY   45  32  60 N8        30.03R
6HR MIN TEMP:  43; 6HR MAX TEMP:  49;

HUNTINGBURG *+ SUNNY     43  30  61 N10       30.03R
6HR MIN TEMP:  37; 6HR MAX TEMP:  46;

WASHINGTON +   SUNNY     40  32  71 NW5       30.04R
6HR MIN TEMP:  37; 6HR MAX TEMP:  45;


$$

INZ062-063-066-070>080-084-089>092-271300-
SOUTH CENTRAL AND SOUTHEAST INDIANA

CITY           SKY/WX    TMP DP  RH WIND       PRES   REMARKS
BEDFORD +      SUNNY     41  30  65 N8        30.01R
BLOOMINGTON    SUNNY     40  31  70 N6        30.01R
6HR MIN TEMP:  37; 6HR MAX TEMP:  44;

MADISON *+     SUNNY     41  32  70 CALM      30.00R
NORTH VERNON + SUNNY     39  36  87 NW8       30.00R
SEYMOUR +      SUNNY     43  32  65 NW8       30.01R

$$



USA.gov is the U.S. government's official web portal to all federal, state and local government web resources and services.